• En España
  • Lista de países
  • Para 7 días
  • Temperatura del agua
  • Mapa Satelital
  • El tiempo en el mapa
  • Informadores
  • user-avatar
    Iniciar sesión

    Tiempo cada hora Kalgoorlie

    Hoy, 16 Agosto, Jueves

    Tiempo Temperatura Precipitaciones Viento Presión Humedad
    00:00 +11°C° 0 mm 3 mps 733 mmHg 54%
    01:00 +10°C° 0 mm 3 mps 733 mmHg 58%
    02:00 +10°C° 0 mm 3 mps 733 mmHg 62%
    03:00 +9°C° 0 mm 3 mps 733 mmHg 65%
    04:00 +9°C° 0 mm 2 mps 733 mmHg 67%
    05:00 +9°C° 0 mm 2 mps 733 mmHg 69%
    06:00 +9°C° 0 mm 2 mps 733 mmHg 67%
    07:00 +10°C° 0 mm 2 mps 733 mmHg 65%
    08:00 +12°C° 0 mm 2 mps 733 mmHg 62%
    09:00 +13°C° 0 mm 1 mps 733 mmHg 56%
    10:00 +15°C° 0 mm 1 mps 733 mmHg 50%
    11:00 +16°C° 0 mm 1 mps 732 mmHg 44%
    12:00 +17°C° 0 mm 2 mps 732 mmHg 40%
    13:00 +18°C° 0 mm 2 mps 731 mmHg 36%
    14:00 +19°C° 0 mm 3 mps 731 mmHg 32%
    15:00 +19°C° 0 mm 3 mps 731 mmHg 33%
    16:00 +18°C° 0 mm 3 mps 730 mmHg 33%
    17:00 +18°C° 0 mm 4 mps 730 mmHg 34%
    18:00 +17°C° 0 mm 3 mps 731 mmHg 37%
    19:00 +16°C° 0 mm 3 mps 731 mmHg 41%
    20:00 +14°C° 0 mm 3 mps 731 mmHg 45%
    21:00 +13°C° 0 mm 3 mps 731 mmHg 51%
    22:00 +12°C° 0 mm 4 mps 731 mmHg 57%
    23:00 +11°C° 0 mm 4 mps 731 mmHg 63%

    Mañana, 17 Agosto, Viernes

    Tiempo Temperatura Precipitaciones Viento Presión Humedad
    00:00 +11°C° 0 mm 4 mps 731 mmHg 67%
    01:00 +11°C° 0 mm 4 mps 731 mmHg 70%
    02:00 +10°C° 0 mm 4 mps 731 mmHg 74%
    03:00 +10°C° 0 mm 4 mps 731 mmHg 78%
    04:00 +8°C° 0 mm 4 mps 731 mmHg 82%
    05:00 +8°C° 0 mm 4 mps 731 mmHg 85%
    06:00 +9°C° 0 mm 5 mps 732 mmHg 83%
    07:00 +9°C° 0 mm 5 mps 732 mmHg 80%
    08:00 +10°C° 0 mm 6 mps 732 mmHg 78%
    09:00 +12°C° 0 mm 5 mps 732 mmHg 71%
    10:00 +14°C° 0 mm 5 mps 733 mmHg 64%
    11:00 +15°C° 0 mm 5 mps 733 mmHg 56%
    12:00 +16°C° 0 mm 5 mps 732 mmHg 52%
    13:00 +16°C° 0 mm 5 mps 732 mmHg 47%
    14:00 +17°C° 0 mm 5 mps 732 mmHg 43%
    15:00 +17°C° 0 mm 5 mps 732 mmHg 43%
    16:00 +16°C° 0 mm 5 mps 732 mmHg 44%
    17:00 +16°C° 0 mm 5 mps 732 mmHg 44%
    18:00 +15°C° 0 mm 4 mps 733 mmHg 46%
    19:00 +13°C° 0 mm 4 mps 734 mmHg 49%
    20:00 +12°C° 0 mm 3 mps 734 mmHg 51%
    21:00 +12°C° 0 mm 4 mps 735 mmHg 55%
    22:00 +11°C° 0 mm 4 mps 735 mmHg 58%
    23:00 +9°C° 0 mm 5 mps 735 mmHg 62%

    Pasado mañana, 18 Agosto, Sábado

    Tiempo Temperatura Precipitaciones Viento Presión Humedad
    00:00 +8°C° 0 mm 5 mps 735 mmHg 65%
    01:00 +8°C° 0 mm 5 mps 735 mmHg 68%
    02:00 +7°C° 0 mm 5 mps 736 mmHg 72%
    03:00 +7°C° 0 mm 5 mps 736 mmHg 73%
    04:00 +6°C° 0 mm 5 mps 736 mmHg 74%
    05:00 +6°C° 0 mm 5 mps 736 mmHg 75%
    06:00 +7°C° 0 mm 5 mps 736 mmHg 72%
    07:00 +7°C° 0 mm 6 mps 737 mmHg 69%
    08:00 +7°C° 0 mm 6 mps 737 mmHg 66%
    09:00 +9°C° 0 mm 6 mps 737 mmHg 60%
    10:00 +11°C° 0 mm 6 mps 737 mmHg 54%
    11:00 +14°C° 0 mm 6 mps 737 mmHg 47%
    12:00 +15°C° 0 mm 5 mps 737 mmHg 45%
    13:00 +16°C° 0 mm 5 mps 736 mmHg 42%
    14:00 +18°C° 0 mm 4 mps 736 mmHg 39%
    15:00 +18°C° 0 mm 4 mps 736 mmHg 39%
    16:00 +17°C° 0 mm 4 mps 736 mmHg 39%
    17:00 +17°C° 0 mm 4 mps 736 mmHg 39%
    18:00 +15°C° 0 mm 4 mps 736 mmHg 41%
    19:00 +14°C° 0 mm 4 mps 737 mmHg 44%
    20:00 +13°C° 0 mm 4 mps 737 mmHg 46%
    21:00 +13°C° 0 mm 5 mps 738 mmHg 47%
    22:00 +12°C° 0 mm 5 mps 738 mmHg 47%
    23:00 +12°C° 0 mm 5 mps 738 mmHg 48%

    19 Agosto, Domingo

    Tiempo Temperatura Precipitaciones Viento Presión Humedad
    00:00 +10°C° 0 mm 5 mps 738 mmHg 48%
    01:00 +10°C° 0 mm 6 mps 737 mmHg 49%
    02:00 +9°C° 0 mm 6 mps 737 mmHg 49%
    03:00 +9°C° 0 mm 6 mps 737 mmHg 50%
    04:00 +9°C° 0 mm 6 mps 737 mmHg 51%
    05:00 +8°C° 0 mm 6 mps 737 mmHg 52%
    06:00 +9°C° 0 mm 6 mps 737 mmHg 49%
    07:00 +10°C° 0 mm 7 mps 737 mmHg 47%
    08:00 +10°C° 0 mm 8 mps 737 mmHg 44%
    09:00 +12°C° 0 mm 8 mps 737 mmHg 40%
    10:00 +15°C° 0 mm 7 mps 737 mmHg 36%
    11:00 +18°C° 0 mm 7 mps 737 mmHg 32%
    12:00 +20°C° 0 mm 7 mps 736 mmHg 31%
    13:00 +21°C° 0 mm 7 mps 735 mmHg 29%
    14:00 +23°C° 0 mm 7 mps 734 mmHg 27%
    15:00 +22°C° 0 mm 6 mps 734 mmHg 28%
    16:00 +22°C° 0 mm 5 mps 734 mmHg 29%
    17:00 +22°C° 0 mm 4 mps 734 mmHg 30%
    18:00 +20°C° 0 mm 5 mps 734 mmHg 32%
    19:00 +19°C° 0 mm 5 mps 735 mmHg 34%
    20:00 +17°C° 0 mm 5 mps 735 mmHg 36%
    21:00 +16°C° 0 mm 5 mps 735 mmHg 35%
    22:00 +16°C° 0 mm 6 mps 734 mmHg 35%
    23:00 +15°C° 0 mm 6 mps 734 mmHg 34%

    20 Agosto, Lunes

    Tiempo Temperatura Precipitaciones Viento Presión Humedad
    00:00 +15°C° 0 mm 6 mps 734 mmHg 34%
    01:00 +15°C° 0 mm 6 mps 733 mmHg 34%
    02:00 +14°C° 0 mm 6 mps 733 mmHg 33%
    03:00 +14°C° 0 mm 6 mps 733 mmHg 33%
    04:00 +14°C° 0 mm 6 mps 732 mmHg 33%
    05:00 +13°C° 0 mm 6 mps 732 mmHg 33%
    06:00 +14°C° 0 mm 6 mps 732 mmHg 32%
    07:00 +15°C° 0 mm 7 mps 733 mmHg 30%
    08:00 +16°C° 0 mm 8 mps 733 mmHg 29%
    09:00 +20°C° 0 mm 8 mps 732 mmHg 25%
    10:00 +22°C° 0 mm 9 mps 732 mmHg 22%
    11:00 +26°C° 0 mm 10 mps 732 mmHg 18%
    12:00 +26°C° 0 mm 10 mps 731 mmHg 18%
    13:00 +27°C° 0 mm 10 mps 730 mmHg 18%
    14:00 +28°C° 0 mm 10 mps 729 mmHg 17%
    15:00 +27°C° 0 mm 8 mps 729 mmHg 19%
    16:00 +27°C° 0 mm 7 mps 728 mmHg 20%
    17:00 +26°C° 0 mm 6 mps 728 mmHg 21%
    18:00 +24°C° 0 mm 6 mps 728 mmHg 22%
    19:00 +23°C° 0 mm 6 mps 728 mmHg 24%
    20:00 +23°C° 0 mm 6 mps 728 mmHg 25%
    21:00 +21°C° 0 mm 6 mps 728 mmHg 34%
    22:00 +18°C° 0 mm 7 mps 728 mmHg 43%
    23:00 +15°C° 0 mm 7 mps 728 mmHg 51%

    21 Agosto, Martes

    Tiempo Temperatura Precipitaciones Viento Presión Humedad
    00:00 +14°C° 0 mm 7 mps 728 mmHg 58%
    01:00 +13°C° 0 mm 6 mps 728 mmHg 64%
    02:00 +11°C° 0 mm 6 mps 728 mmHg 70%
    03:00 +11°C° 0 mm 6 mps 728 mmHg 74%
    04:00 +10°C° 0 mm 6 mps 728 mmHg 78%
    05:00 +10°C° 0 mm 6 mps 729 mmHg 82%
    06:00 +10°C° 0 mm 6 mps 729 mmHg 79%
    07:00 +10°C° 0 mm 7 mps 729 mmHg 75%
    08:00 +11°C° 0 mm 7 mps 730 mmHg 72%
    09:00 +12°C° 0 mm 7 mps 730 mmHg 67%
    10:00 +14°C° 0 mm 7 mps 730 mmHg 62%
    11:00 +15°C° 0 mm 7 mps 729 mmHg 57%
    12:00 +16°C° 0 mm 7 mps 729 mmHg 53%
    13:00 +17°C° 0 mm 7 mps 729 mmHg 48%
    14:00 +18°C° 0 mm 7 mps 728 mmHg 44%
    15:00 +17°C° 0 mm 7 mps 729 mmHg 47%
    16:00 +16°C° 0 mm 7 mps 729 mmHg 49%
    17:00 +15°C° 0 mm 7 mps 730 mmHg 52%
    18:00 +14°C° 0 mm 6 mps 730 mmHg 53%
    19:00 +14°C° 0 mm 6 mps 731 mmHg 54%
    20:00 +13°C° 0 mm 6 mps 732 mmHg 55%
    21:00 +12°C° 0 mm 5 mps 732 mmHg 57%
    22:00 +12°C° 0 mm 5 mps 732 mmHg 59%
    23:00 +10°C° 0 mm 5 mps 732 mmHg 61%
    Mostrar más